contact:dominique.lefevre@mio.osupytheas.fr, maurice.libes@osupytheas.fr, didier.mallarino@osupytheas.fr
Project:EMSO http://www.emso-fr.org/EMSO-France
Depth: 2436.0 m
Title:EMSO Ligure Ouest : Data MII capteur AQUADOPP
Date,Latitude,Longitude,X_East,Y_North,Z_Up,Amplitude_X,Amplitude_Y,Amplitude_Z,Batterie,SoundSpeed,Heading,Pitch,Roll,Pressure,TIS,Speed,Direction
, degrees North, degrees East, m.s-1, m.s-1,m.s-1, 1, 1, 1, Volt, m.s-1, degree, degree, degree, dbar, degree_C, m.s-1, degree
2021-01-12T00:04:03,42.805,6.029,0.026,-0.014,-0.025,106.0,108.0,103.0,13.4,1505.2,327.1,-0.7,1.8,2470.397,13.3,0.029,118.3
2021-01-12T00:07:03,42.805,6.029,0.036,-0.021,0.021,107.0,107.0,104.0,13.4,1505.3,325.1,-0.7,1.8,2470.405,13.31,0.041,120.3
2021-01-12T00:10:03,42.805,6.029,0.055,-0.021,0.008,107.0,108.0,103.0,13.3,1505.3,324.4,-0.7,1.8,2470.435,13.31,0.058,110.9
2021-01-12T00:13:03,42.805,6.029,-0.002,-0.025,-0.01,107.0,108.0,103.0,13.4,1505.3,326.3,-0.7,1.8,2470.385,13.32,0.025,184.6
2021-01-12T00:16:03,42.805,6.029,0.041,-0.041,-0.006,106.0,106.0,103.0,13.4,1505.3,325.7,-0.7,1.9,2470.434,13.32,0.057,135.0
2021-01-12T00:19:03,42.805,6.029,0.054,-0.029,0.012,107.0,106.0,104.0,13.4,1505.3,324.3,-0.7,1.8,2470.385,13.32,0.061,118.2
2021-01-12T00:22:03,42.805,6.029,0.023,-0.021,0.003,106.0,107.0,102.0,13.4,1505.3,325.6,-0.7,1.8,2470.383,13.32,0.031,132.4
2021-01-12T00:25:03,42.805,6.029,0.03,-0.041,-0.019,107.0,108.0,104.0,13.4,1505.3,324.6,-0.7,1.8,2470.389,13.32,0.05,143.8
2021-01-12T00:28:03,42.805,6.029,0.014,-0.038,-0.026,107.0,107.0,103.0,13.4,1505.3,325.1,-0.7,1.8,2470.386,13.32,0.04,159.8
2021-01-12T00:31:03,42.805,6.029,0.051,-0.027,-0.026,107.0,108.0,104.0,13.4,1505.3,327.4,-0.7,1.8,2470.382,13.32,0.057,117.9
2021-01-12T00:34:03,42.805,6.029,0.01,-0.014,-0.001,108.0,107.0,102.0,13.4,1505.3,327.5,-0.7,1.8,2470.409,13.32,0.017,144.5
2021-01-12T00:37:03,42.805,6.029,0.022,-0.023,0.01,106.0,107.0,103.0,13.3,1505.3,322.6,-0.7,1.8,2470.368,13.32,0.031,136.3
2021-01-12T00:40:03,42.805,6.029,0.044,-0.033,0.024,106.0,108.0,103.0,13.4,1505.3,325.9,-0.7,1.8,2470.378,13.32,0.055,126.9
2021-01-12T00:43:03,42.805,6.029,0.031,-0.027,0.017,107.0,107.0,102.0,13.4,1505.3,324.6,-0.7,1.8,2470.356,13.32,0.041,131.1
2021-01-12T00:46:03,42.805,6.029,0.052,-0.016,-0.017,107.0,108.0,103.0,13.4,1505.3,325.2,-0.7,1.8,2470.364,13.32,0.054,107.1
2021-01-12T00:49:03,42.805,6.029,0.038,-0.026,0.008,107.0,107.0,104.0,13.4,1505.3,326.3,-0.7,1.8,2470.384,13.32,0.046,124.4
2021-01-12T00:52:03,42.805,6.029,0.043,-0.041,0.018,105.0,107.0,104.0,13.4,1505.3,326.9,-0.7,1.8,2470.333,13.32,0.059,133.6
2021-01-12T00:55:03,42.805,6.029,0.023,-0.038,-0.01,106.0,106.0,103.0,13.3,1505.3,325.4,-0.7,1.8,2470.379,13.32,0.044,148.8
2021-01-12T01:04:03,42.805,6.029,0.014,-0.029,-0.03,108.0,108.0,104.0,13.4,1505.2,324.4,-0.7,1.8,2470.432,13.29,0.032,154.2
2021-01-12T01:07:03,42.805,6.029,0.03,-0.036,-0.001,107.0,108.0,104.0,13.4,1505.2,325.5,-0.7,1.8,2470.458,13.3,0.046,140.2
2021-01-12T01:10:03,42.805,6.029,0.032,-0.024,-0.004,107.0,108.0,104.0,13.4,1505.3,324.4,-0.7,1.8,2470.409,13.31,0.04,126.9
2021-01-12T01:13:03,42.805,6.029,0.026,-0.037,0.0,106.0,109.0,103.0,13.3,1505.3,328.0,-0.7,1.8,2470.412,13.31,0.045,144.9
2021-01-12T01:16:03,42.805,6.029,0.042,-0.025,0.0,107.0,107.0,103.0,13.3,1505.3,328.5,-0.7,1.8,2470.403,13.32,0.048,120.8
2021-01-12T01:19:03,42.805,6.029,0.047,-0.028,-0.027,105.0,108.0,103.0,13.3,1505.3,324.8,-0.7,1.9,2470.435,13.32,0.054,120.8
2021-01-12T01:22:02,42.805,6.029,0.025,-0.026,0.012,106.0,107.0,103.0,13.4,1505.3,324.7,-0.7,1.8,2470.416,13.32,0.036,136.1
2021-01-12T01:25:03,42.805,6.029,0.034,-0.018,-0.008,106.0,108.0,103.0,13.3,1505.3,323.2,-0.7,1.9,2470.423,13.32,0.038,117.9
2021-01-12T01:28:03,42.805,6.029,0.046,-0.028,-0.001,105.0,108.0,104.0,13.4,1505.3,322.7,-0.7,1.8,2470.448,13.32,0.053,121.3
2021-01-12T01:31:03,42.805,6.029,0.034,-0.041,0.008,105.0,108.0,103.0,13.4,1505.3,326.6,-0.7,1.8,2470.419,13.32,0.053,140.3
2021-01-12T01:34:03,42.805,6.029,0.033,-0.031,0.0,107.0,108.0,103.0,13.4,1505.3,324.7,-0.7,1.8,2470.403,13.32,0.045,133.2
2021-01-12T01:37:03,42.805,6.029,0.032,-0.036,-0.002,106.0,109.0,103.0,13.4,1505.3,326.9,-0.7,1.8,2470.414,13.32,0.048,138.4
2021-01-12T01:40:03,42.805,6.029,0.04,-0.031,0.025,107.0,109.0,103.0,13.4,1505.3,322.9,-0.7,1.8,2470.431,13.32,0.05,127.8
2021-01-12T01:43:03,42.805,6.029,0.03,-0.036,0.019,106.0,107.0,103.0,13.4,1505.3,324.8,-0.7,1.8,2470.382,13.32,0.046,140.2
2021-01-12T01:46:03,42.805,6.029,0.028,-0.028,-0.011,106.0,108.0,104.0,13.4,1505.3,323.3,-0.7,1.8,2470.421,13.32,0.039,135.0
2021-01-12T01:49:03,42.805,6.029,0.018,-0.024,0.012,105.0,109.0,103.0,13.4,1505.3,326.8,-0.7,1.8,2470.408,13.32,0.03,143.1
2021-01-12T01:52:03,42.805,6.029,0.055,-0.026,0.008,106.0,108.0,103.0,13.4,1505.3,327.3,-0.7,1.8,2470.4,13.32,0.06,115.3
2021-01-12T01:55:03,42.805,6.029,0.026,-0.006,0.01,106.0,109.0,103.0,13.3,1505.3,324.2,-0.7,1.8,2470.388,13.32,0.026,103.0
2021-01-12T01:58:03,42.805,6.029,0.038,-0.053,0.007,107.0,108.0,103.0,13.4,1505.3,327.2,-0.7,1.9,2470.418,13.32,0.065,144.4
2021-01-12T02:04:03,42.805,6.029,0.033,-0.029,0.027,106.0,108.0,103.0,13.4,1505.2,324.1,-0.7,1.8,2470.469,13.3,0.043,131.3
2021-01-12T02:07:03,42.805,6.029,0.013,-0.031,-0.013,105.0,108.0,103.0,13.4,1505.3,327.9,-0.7,1.8,2470.429,13.31,0.033,157.3
2021-01-12T02:10:03,42.805,6.029,0.021,-0.006,0.004,106.0,108.0,103.0,13.3,1505.3,324.6,-0.7,1.8,2470.447,13.31,0.021,105.9
2021-01-12T02:13:03,42.805,6.029,0.037,-0.03,0.0,106.0,108.0,103.0,13.3,1505.3,324.7,-0.7,1.8,2470.465,13.32,0.047,129.0
2021-01-12T02:16:03,42.805,6.029,0.035,-0.033,-0.003,106.0,108.0,103.0,13.4,1505.3,327.1,-0.7,1.8,2470.437,13.32,0.048,133.3
2021-01-12T02:19:03,42.805,6.029,0.047,-0.021,-0.022,107.0,108.0,104.0,13.4,1505.3,327.8,-0.7,1.8,2470.459,13.32,0.051,114.1
2021-01-12T02:22:03,42.805,6.029,0.028,-0.026,0.007,109.0,107.0,104.0,13.4,1505.3,325.0,-0.7,1.8,2470.417,13.32,0.038,132.9
2021-01-12T02:25:03,42.805,6.029,0.032,-0.025,0.03,107.0,108.0,103.0,13.4,1505.3,323.5,-0.7,1.8,2470.42,13.32,0.04,128.0
2021-01-12T02:28:03,42.805,6.029,0.024,-0.028,0.0,107.0,108.0,104.0,13.4,1505.3,324.4,-0.7,1.8,2470.414,13.32,0.036,139.4
2021-01-12T02:31:03,42.805,6.029,0.062,-0.027,0.038,106.0,108.0,104.0,13.3,1505.3,324.6,-0.7,1.8,2470.445,13.32,0.067,113.5
2021-01-12T02:34:03,42.805,6.029,0.014,-0.028,0.012,108.0,108.0,104.0,13.4,1505.3,323.2,-0.7,1.8,2470.427,13.32,0.031,153.4
2021-01-12T02:37:03,42.805,6.029,0.042,-0.039,-0.028,108.0,108.0,103.0,13.4,1505.3,323.4,-0.7,1.8,2470.399,13.32,0.057,132.9
2021-01-12T02:40:03,42.805,6.029,0.044,-0.037,0.009,106.0,109.0,103.0,13.3,1505.3,327.6,-0.6,1.8,2470.441,13.32,0.057,130.1
2021-01-12T02:43:03,42.805,6.029,0.023,-0.027,0.007,108.0,109.0,103.0,13.4,1505.3,324.6,-0.7,1.8,2470.453,13.32,0.035,139.6
2021-01-12T02:46:03,42.805,6.029,0.037,-0.024,-0.006,107.0,108.0,104.0,13.4,1505.3,325.5,-0.7,1.8,2470.448,13.32,0.044,123.0
2021-01-12T02:49:03,42.805,6.029,0.034,-0.033,0.014,107.0,108.0,103.0,13.4,1505.3,324.1,-0.7,1.8,2470.468,13.32,0.047,134.1
2021-01-12T02:52:03,42.805,6.029,0.045,-0.055,0.007,106.0,108.0,104.0,13.4,1505.3,328.0,-0.7,1.9,2470.434,13.32,0.071,140.7
2021-01-12T02:55:03,42.805,6.029,0.051,-0.017,-0.003,107.0,108.0,104.0,13.4,1505.3,326.3,-0.7,1.8,2470.467,13.32,0.053,108.4
2021-01-12T02:58:03,42.805,6.029,0.051,-0.014,-0.015,107.0,108.0,103.0,13.3,1505.3,325.7,-0.7,1.8,2470.431,13.32,0.052,105.3
2021-01-12T03:04:03,42.805,6.029,0.048,-0.027,0.005,107.0,108.0,104.0,13.4,1505.2,326.7,-0.7,1.8,2470.499,13.3,0.055,119.4
2021-01-12T03:07:03,42.805,6.029,0.007,-0.008,-0.002,108.0,108.0,104.0,13.4,1505.3,328.2,-0.7,1.8,2470.443,13.31,0.01,138.8
2021-01-12T03:10:03,42.805,6.029,0.038,-0.017,-0.024,108.0,109.0,104.0,13.4,1505.3,324.4,-0.8,1.8,2470.495,13.31,0.041,114.1
2021-01-12T03:13:03,42.805,6.029,0.033,-0.032,0.012,108.0,107.0,104.0,13.4,1505.3,325.4,-0.7,1.9,2470.486,13.32,0.045,134.1
2021-01-12T03:16:03,42.805,6.029,0.036,-0.038,-0.003,106.0,107.0,104.0,13.4,1505.3,326.5,-0.7,1.8,2470.496,13.32,0.052,136.5
2021-01-12T03:19:03,42.805,6.029,0.052,-0.025,-0.008,107.0,108.0,104.0,13.4,1505.3,322.5,-0.7,1.8,2470.477,13.32,0.057,115.7
2021-01-12T03:22:03,42.805,6.029,0.039,-0.023,0.009,108.0,108.0,104.0,13.3,1505.3,323.3,-0.7,1.8,2470.487,13.32,0.045,120.5
2021-01-12T03:25:03,42.805,6.029,0.035,-0.027,-0.005,108.0,107.0,104.0,13.4,1505.3,327.4,-0.7,1.8,2470.494,13.32,0.044,127.7
2021-01-12T03:28:03,42.805,6.029,0.027,-0.035,-0.013,108.0,107.0,104.0,13.3,1505.3,327.4,-0.7,1.8,2470.491,13.32,0.044,142.3
2021-01-12T03:31:03,42.805,6.029,0.04,-0.016,0.006,108.0,109.0,103.0,13.3,1505.3,324.9,-0.7,1.8,2470.497,13.32,0.043,111.8
2021-01-12T03:34:03,42.805,6.029,0.045,-0.024,-0.01,107.0,108.0,104.0,13.3,1505.3,323.5,-0.7,1.8,2470.515,13.32,0.051,118.1
2021-01-12T03:37:03,42.805,6.029,0.046,-0.04,0.024,108.0,108.0,103.0,13.3,1505.3,328.0,-0.7,1.8,2470.513,13.32,0.06,131.0
2021-01-12T03:40:03,42.805,6.029,0.06,-0.032,0.023,108.0,107.0,103.0,13.4,1505.3,324.3,-0.7,1.8,2470.496,13.32,0.067,118.1
2021-01-12T03:43:03,42.805,6.029,0.033,-0.039,-0.033,107.0,108.0,103.0,13.4,1505.3,328.2,-0.7,1.8,2470.533,13.32,0.051,139.8
2021-01-12T03:46:03,42.805,6.029,0.019,-0.035,0.004,107.0,107.0,105.0,13.3,1505.3,327.8,-0.7,1.8,2470.507,13.32,0.039,151.5
2021-01-12T03:49:03,42.805,6.029,0.044,-0.034,0.036,107.0,107.0,104.0,13.4,1505.3,327.7,-0.7,1.8,2470.516,13.32,0.055,127.7
2021-01-12T03:52:03,42.805,6.029,0.048,-0.024,0.028,107.0,109.0,105.0,13.4,1505.3,323.6,-0.7,1.8,2470.527,13.32,0.053,116.6
2021-01-12T03:55:03,42.805,6.029,0.028,-0.003,-0.007,107.0,109.0,104.0,13.4,1505.3,322.7,-0.7,1.8,2470.544,13.32,0.028,96.1
2021-01-12T03:58:03,42.805,6.029,-0.002,-0.021,-0.029,107.0,107.0,103.0,13.4,1505.3,323.2,-0.7,1.8,2470.542,13.32,0.021,185.4
2021-01-12T04:04:03,42.805,6.029,0.036,-0.026,-0.003,108.0,107.0,103.0,13.4,1505.2,327.0,-0.7,1.8,2470.551,13.3,0.044,125.8
2021-01-12T04:07:03,42.805,6.029,0.035,-0.019,0.002,108.0,108.0,104.0,13.3,1505.3,323.4,-0.7,1.9,2470.525,13.31,0.039,118.5
2021-01-12T04:10:03,42.805,6.029,0.035,-0.05,0.012,106.0,107.0,103.0,13.4,1505.3,324.0,-0.7,1.8,2470.579,13.31,0.061,145.0
2021-01-12T04:13:03,42.805,6.029,0.045,-0.024,0.006,107.0,108.0,104.0,13.4,1505.3,323.8,-0.7,1.8,2470.567,13.31,0.051,118.1
2021-01-12T04:16:03,42.805,6.029,0.031,-0.032,0.005,108.0,109.0,104.0,13.4,1505.3,327.7,-0.7,1.8,2470.555,13.32,0.044,135.9
2021-01-12T04:19:03,42.805,6.029,0.048,-0.035,-0.005,106.0,108.0,104.0,13.4,1505.3,325.2,-0.7,1.8,2470.604,13.32,0.059,126.1
2021-01-12T04:22:03,42.805,6.029,0.031,-0.028,0.014,108.0,108.0,103.0,13.4,1505.3,327.0,-0.7,1.8,2470.578,13.32,0.041,132.1
2021-01-12T04:25:03,42.805,6.029,0.02,-0.039,-0.023,108.0,108.0,104.0,13.4,1505.3,324.4,-0.7,1.8,2470.605,13.32,0.043,152.9
2021-01-12T04:28:03,42.805,6.029,0.025,-0.037,0.01,108.0,108.0,104.0,13.4,1505.3,326.7,-0.7,1.8,2470.583,13.32,0.044,146.0
2021-01-12T04:31:03,42.805,6.029,0.007,-0.045,-0.012,108.0,107.0,104.0,13.4,1505.3,327.6,-0.7,1.8,2470.551,13.32,0.045,171.2
2021-01-12T04:34:03,42.805,6.029,0.049,-0.039,-0.003,107.0,108.0,104.0,13.4,1505.3,324.4,-0.7,1.8,2470.552,13.32,0.062,128.5
2021-01-12T04:37:03,42.805,6.029,0.049,-0.036,-0.008,107.0,108.0,103.0,13.4,1505.3,328.3,-0.7,1.8,2470.556,13.32,0.06,126.3
2021-01-12T04:40:03,42.805,6.029,0.042,-0.032,0.011,108.0,108.0,105.0,13.4,1505.3,326.4,-0.7,1.9,2470.594,13.32,0.052,127.3
2021-01-12T04:43:03,42.805,6.029,0.05,-0.048,0.016,107.0,108.0,103.0,13.4,1505.3,325.1,-0.7,1.8,2470.551,13.32,0.069,133.8
2021-01-12T04:46:03,42.805,6.029,0.053,-0.051,-0.003,108.0,107.0,104.0,13.4,1505.3,323.1,-0.7,1.8,2470.622,13.32,0.073,133.9
2021-01-12T04:49:03,42.805,6.029,0.053,-0.045,-0.013,107.0,108.0,103.0,13.4,1505.3,323.3,-0.7,1.8,2470.601,13.32,0.069,130.3
2021-01-12T04:52:03,42.805,6.029,0.04,-0.036,0.016,107.0,107.0,105.0,13.4,1505.3,322.8,-0.7,1.8,2470.557,13.32,0.053,132.0
2021-01-12T04:55:03,42.805,6.029,0.039,-0.046,0.028,107.0,108.0,104.0,13.4,1505.3,324.2,-0.7,1.8,2470.611,13.32,0.06,139.7
2021-01-12T04:58:03,42.805,6.029,0.012,-0.024,-0.004,107.0,107.0,104.0,13.4,1505.3,324.6,-0.7,1.8,2470.56,13.32,0.026,153.4
2021-01-12T05:04:03,42.805,6.029,0.007,-0.038,-0.015,107.0,107.0,104.0,13.4,1505.2,327.6,-0.8,1.8,2470.616,13.3,0.038,169.6
2021-01-12T05:07:03,42.805,6.029,0.054,-0.044,0.021,107.0,108.0,104.0,13.4,1505.3,326.8,-0.7,1.8,2470.616,13.31,0.069,129.2
2021-01-12T05:10:03,42.805,6.029,0.036,-0.043,-0.011,107.0,107.0,104.0,13.4,1505.3,324.2,-0.7,1.9,2470.639,13.31,0.056,140.1
2021-01-12T05:13:03,42.805,6.029,0.019,-0.04,-0.002,108.0,107.0,104.0,13.4,1505.3,324.4,-0.7,1.8,2470.638,13.32,0.044,154.6
2021-01-12T05:16:03,42.805,6.029,0.051,-0.052,0.019,107.0,107.0,104.0,13.4,1505.3,327.1,-0.7,1.8,2470.617,13.32,0.072,135.5
2021-01-12T05:19:03,42.805,6.029,0.031,-0.038,0.022,108.0,108.0,104.0,13.4,1505.3,325.0,-0.7,1.9,2470.594,13.32,0.049,140.8
2021-01-12T05:22:03,42.805,6.029,0.044,-0.042,-0.022,107.0,108.0,104.0,13.4,1505.3,325.9,-0.7,1.8,2470.595,13.32,0.06,133.7
2021-01-12T05:25:03,42.805,6.029,0.024,-0.038,-0.053,108.0,107.0,103.0,13.4,1505.3,324.6,-0.7,1.8,2470.586,13.32,0.044,147.7
2021-01-12T05:28:03,42.805,6.029,0.031,-0.035,0.043,107.0,108.0,103.0,13.3,1505.3,327.5,-0.7,1.8,2470.618,13.32,0.046,138.5
2021-01-12T05:31:03,42.805,6.029,0.033,-0.03,-0.014,107.0,107.0,104.0,13.3,1505.3,323.7,-0.7,1.8,2470.59,13.32,0.044,132.3
2021-01-12T05:34:03,42.805,6.029,0.046,-0.049,0.015,106.0,107.0,103.0,13.4,1505.3,323.8,-0.7,1.8,2470.602,13.32,0.067,136.8
2021-01-12T05:37:03,42.805,6.029,0.025,-0.035,-0.003,106.0,108.0,103.0,13.4,1505.3,323.6,-0.7,1.8,2470.589,13.32,0.043,144.5
2021-01-12T05:40:03,42.805,6.029,0.023,-0.066,-0.009,109.0,108.0,105.0,13.4,1505.3,326.1,-0.7,1.8,2470.637,13.32,0.069,160.8
2021-01-12T05:43:03,42.805,6.029,0.016,-0.057,0.021,107.0,108.0,104.0,13.3,1505.3,325.3,-0.7,1.8,2470.647,13.32,0.059,164.3
2021-01-12T05:49:03,42.805,6.029,0.02,-0.061,-0.01,108.0,106.0,104.0,13.4,1505.2,326.3,-0.8,1.8,2470.653,13.3,0.064,161.9
2021-01-12T05:52:03,42.805,6.029,0.024,-0.063,0.013,108.0,107.0,103.0,13.4,1505.3,325.3,-0.7,1.8,2470.625,13.31,0.067,159.1
2021-01-12T05:55:03,42.805,6.029,0.022,-0.04,0.019,107.0,108.0,104.0,13.4,1505.3,326.4,-0.7,1.9,2470.697,13.31,0.045,151.2
2021-01-12T05:58:03,42.805,6.029,0.014,-0.051,0.005,108.0,108.0,104.0,13.3,1505.3,325.2,-0.7,1.8,2470.65,13.31,0.052,164.7
2021-01-12T06:04:03,42.805,6.029,0.05,-0.059,-0.018,108.0,108.0,103.0,13.3,1505.2,327.2,-0.7,1.8,2470.69,13.3,0.077,139.7
2021-01-12T06:07:03,42.805,6.029,0.038,-0.041,0.021,107.0,107.0,103.0,13.3,1505.3,322.9,-0.7,1.8,2470.691,13.31,0.055,137.2
2021-01-12T06:10:03,42.805,6.029,0.017,-0.054,-0.012,107.0,107.0,103.0,13.3,1505.3,326.5,-0.7,1.8,2470.648,13.31,0.056,162.5
2021-01-12T06:13:03,42.805,6.029,0.033,-0.044,0.003,108.0,107.0,102.0,13.4,1505.3,323.0,-0.7,1.9,2470.67,13.31,0.055,143.1
2021-01-12T06:16:03,42.805,6.029,0.015,-0.044,0.03,107.0,108.0,104.0,13.4,1505.3,327.9,-0.7,1.9,2470.669,13.32,0.046,161.2
2021-01-12T06:19:03,42.805,6.029,0.051,-0.051,0.036,107.0,107.0,104.0,13.3,1505.3,323.5,-0.7,1.8,2470.679,13.32,0.072,135.0
2021-01-12T06:22:03,42.805,6.029,0.012,-0.054,-0.014,108.0,108.0,104.0,13.3,1505.3,327.2,-0.7,1.8,2470.599,13.32,0.055,167.5
2021-01-12T06:25:03,42.805,6.029,0.036,-0.035,-0.01,107.0,109.0,104.0,13.3,1505.3,326.0,-0.7,1.8,2470.694,13.32,0.05,134.2
2021-01-12T06:28:03,42.805,6.029,0.009,-0.038,0.007,107.0,108.0,103.0,13.3,1505.3,325.6,-0.7,1.8,2470.629,13.32,0.039,166.7
2021-01-12T06:31:03,42.805,6.029,0.019,-0.052,-0.004,108.0,108.0,104.0,13.3,1505.3,327.6,-0.7,1.8,2470.628,13.32,0.055,159.9
2021-01-12T06:34:03,42.805,6.029,0.015,-0.036,0.004,109.0,107.0,105.0,13.3,1505.3,327.3,-0.7,1.8,2470.621,13.32,0.039,157.4
2021-01-12T06:37:03,42.805,6.029,0.021,-0.031,-0.015,108.0,109.0,104.0,13.4,1505.3,326.9,-0.7,1.8,2470.598,13.32,0.037,145.9
2021-01-12T06:40:03,42.805,6.029,0.011,-0.035,0.001,108.0,108.0,104.0,13.4,1505.3,324.7,-0.7,1.8,2470.618,13.32,0.036,162.6
2021-01-12T06:43:03,42.805,6.029,0.023,-0.032,-0.025,108.0,109.0,104.0,13.4,1505.3,324.0,-0.7,1.8,2470.626,13.32,0.039,144.3
2021-01-12T06:46:03,42.805,6.029,0.012,-0.016,0.017,107.0,108.0,103.0,13.4,1505.3,324.8,-0.7,1.8,2470.65,13.32,0.02,143.1
2021-01-12T06:49:03,42.805,6.029,-0.006,-0.034,0.023,108.0,108.0,104.0,13.3,1505.3,325.7,-0.8,1.8,2470.623,13.32,0.034,190.0
2021-01-12T06:52:03,42.805,6.029,0.009,-0.038,0.015,108.0,108.0,104.0,13.4,1505.3,326.8,-0.7,1.8,2470.627,13.32,0.039,166.7
2021-01-12T06:55:03,42.805,6.029,0.012,-0.023,0.016,108.0,107.0,104.0,13.4,1505.3,324.2,-0.7,1.8,2470.618,13.32,0.025,152.4
2021-01-12T06:58:03,42.805,6.029,0.0,-0.047,0.003,108.0,108.0,105.0,13.4,1505.3,326.7,-0.7,1.8,2470.661,13.32,0.047,180.0
2021-01-12T07:04:03,42.805,6.029,0.011,-0.024,0.008,107.0,109.0,105.0,13.4,1505.2,326.5,-0.7,1.9,2470.689,13.3,0.026,155.4
2021-01-12T07:07:03,42.805,6.029,0.005,-0.058,-0.023,108.0,109.0,104.0,13.3,1505.3,324.5,-0.7,1.8,2470.671,13.31,0.058,175.1
2021-01-12T07:10:03,42.805,6.029,0.025,-0.051,0.002,108.0,108.0,104.0,13.4,1505.3,327.9,-0.7,1.8,2470.647,13.31,0.056,153.9
2021-01-12T07:13:03,42.805,6.029,0.039,-0.044,-0.006,107.0,108.0,104.0,13.3,1505.3,326.9,-0.7,1.8,2470.681,13.32,0.058,138.4
2021-01-12T07:16:03,42.805,6.029,0.028,-0.045,0.015,108.0,108.0,104.0,13.4,1505.3,323.3,-0.7,1.8,2470.663,13.32,0.053,148.1
2021-01-12T07:19:03,42.805,6.029,0.025,-0.034,0.001,107.0,107.0,103.0,13.3,1505.3,324.3,-0.7,1.8,2470.631,13.32,0.042,143.7
2021-01-12T07:22:03,42.805,6.029,0.043,-0.053,-0.006,106.0,108.0,104.0,13.3,1505.3,324.1,-0.7,1.9,2470.611,13.32,0.068,140.9
2021-01-12T07:25:03,42.805,6.029,0.002,-0.062,0.001,108.0,107.0,105.0,13.3,1505.3,327.0,-0.7,1.9,2470.638,13.32,0.062,178.2
2021-01-12T07:28:03,42.805,6.029,0.022,-0.044,0.01,108.0,109.0,103.0,13.4,1505.3,328.5,-0.7,1.8,2470.635,13.32,0.049,153.4
2021-01-12T07:31:03,42.805,6.029,0.018,-0.043,0.032,108.0,109.0,104.0,13.4,1505.3,327.4,-0.7,1.8,2470.628,13.32,0.046,157.3
2021-01-12T07:34:03,42.805,6.029,0.007,-0.056,-0.037,108.0,108.0,103.0,13.4,1505.3,325.6,-0.6,1.8,2470.642,13.32,0.056,172.9
2021-01-12T07:37:03,42.805,6.029,0.008,-0.023,0.02,108.0,108.0,103.0,13.4,1505.3,323.5,-0.7,1.8,2470.604,13.32,0.024,160.8
2021-01-12T07:40:03,42.805,6.029,-0.008,-0.047,0.0,108.0,107.0,103.0,13.4,1505.3,326.1,-0.7,1.8,2470.591,13.32,0.047,189.7
2021-01-12T07:43:03,42.805,6.029,-0.007,-0.063,-0.018,107.0,108.0,106.0,13.3,1505.3,324.2,-0.7,1.8,2470.633,13.32,0.063,186.3
2021-01-12T07:46:03,42.805,6.029,0.002,-0.037,0.001,108.0,108.0,103.0,13.4,1505.3,323.9,-0.7,1.8,2470.632,13.32,0.037,176.9
2021-01-12T07:49:03,42.805,6.029,0.024,-0.051,-0.01,108.0,108.0,103.0,13.4,1505.3,324.2,-0.7,1.8,2470.617,13.32,0.056,154.8
2021-01-12T07:52:03,42.805,6.029,0.003,-0.032,-0.021,108.0,108.0,105.0,13.3,1505.3,324.2,-0.7,1.8,2470.633,13.32,0.032,174.6
2021-01-12T07:55:03,42.805,6.029,-0.007,-0.028,0.014,109.0,107.0,104.0,13.4,1505.3,325.5,-0.7,1.8,2470.635,13.32,0.028,194.0
2021-01-12T07:58:03,42.805,6.029,-0.012,-0.051,-0.01,108.0,107.0,104.0,13.4,1505.3,323.2,-0.7,1.8,2470.634,13.32,0.052,193.2
2021-01-12T08:04:03,42.805,6.029,0.017,-0.039,0.036,108.0,106.0,103.0,13.4,1505.2,323.4,-0.7,1.8,2470.644,13.3,0.042,156.5
2021-01-12T08:07:03,42.805,6.029,0.012,-0.053,-0.016,107.0,108.0,104.0,13.3,1505.3,325.6,-0.7,1.8,2470.642,13.31,0.054,167.2
2021-01-12T08:10:03,42.805,6.029,-0.008,-0.024,0.017,108.0,105.0,104.0,13.3,1505.3,324.5,-0.7,1.8,2470.639,13.31,0.025,198.4
2021-01-12T08:13:03,42.805,6.029,0.01,-0.069,-0.005,107.0,107.0,104.0,13.4,1505.3,326.3,-0.7,1.8,2470.657,13.32,0.069,171.8
2021-01-12T08:16:03,42.805,6.029,0.002,-0.034,0.002,108.0,107.0,104.0,13.3,1505.3,328.1,-0.7,1.8,2470.64,13.32,0.034,176.6
2021-01-12T08:19:03,42.805,6.029,-0.005,-0.037,0.005,108.0,108.0,103.0,13.3,1505.3,327.7,-0.7,1.8,2470.622,13.32,0.037,187.7
2021-01-12T08:22:03,42.805,6.029,-0.011,-0.046,-0.019,109.0,107.0,104.0,13.3,1505.3,328.0,-0.7,1.8,2470.622,13.32,0.047,193.4
2021-01-12T08:25:03,42.805,6.029,0.005,-0.04,-0.008,108.0,107.0,103.0,13.4,1505.3,328.6,-0.7,1.8,2470.634,13.32,0.04,172.9
2021-01-12T08:28:03,42.805,6.029,-0.008,-0.028,0.001,107.0,107.0,103.0,13.3,1505.3,327.2,-0.7,1.8,2470.635,13.32,0.029,195.9
2021-01-12T08:31:03,42.805,6.029,0.011,-0.033,-0.012,108.0,107.0,103.0,13.4,1505.3,327.2,-0.7,1.8,2470.652,13.32,0.034,161.6
2021-01-12T08:34:03,42.805,6.029,-0.002,-0.044,-0.006,106.0,106.0,104.0,13.4,1505.3,326.3,-0.7,1.8,2470.612,13.32,0.044,182.6
2021-01-12T08:37:03,42.805,6.029,0.02,-0.022,-0.002,108.0,106.0,104.0,13.4,1505.3,326.0,-0.7,1.8,2470.628,13.32,0.029,137.7
2021-01-12T08:40:03,42.805,6.029,0.0,-0.041,0.013,107.0,108.0,103.0,13.3,1505.3,324.2,-0.7,1.8,2470.686,13.32,0.041,180.0
2021-01-12T08:43:03,42.805,6.029,0.018,-0.033,-0.02,108.0,108.0,104.0,13.4,1505.3,324.7,-0.7,1.9,2470.606,13.32,0.037,151.4
2021-01-12T08:46:03,42.805,6.029,-0.009,-0.014,0.007,107.0,107.0,103.0,13.4,1505.3,327.6,-0.7,1.8,2470.657,13.32,0.016,212.7
2021-01-12T08:49:03,42.805,6.029,0.003,-0.049,-0.036,107.0,108.0,104.0,13.4,1505.3,326.3,-0.7,1.8,2470.6,13.32,0.049,176.5
2021-01-12T08:52:03,42.805,6.029,0.006,-0.018,0.009,108.0,107.0,105.0,13.4,1505.3,325.0,-0.7,1.8,2470.595,13.32,0.018,161.6
2021-01-12T08:55:03,42.805,6.029,0.026,-0.047,-0.01,107.0,107.0,104.0,13.3,1505.3,324.5,-0.7,1.8,2470.607,13.32,0.053,151.0
2021-01-12T08:58:03,42.805,6.029,-0.003,-0.04,0.002,107.0,107.0,103.0,13.4,1505.3,326.7,-0.7,1.8,2470.603,13.32,0.04,184.3
2021-01-12T09:04:03,42.805,6.029,-0.004,-0.053,-0.022,107.0,107.0,104.0,13.4,1505.2,327.7,-0.7,1.8,2470.643,13.3,0.053,184.3
2021-01-12T09:07:03,42.805,6.029,-0.004,-0.029,-0.014,108.0,107.0,103.0,13.3,1505.3,326.9,-0.7,1.8,2470.614,13.31,0.029,187.8
2021-01-12T09:10:03,42.805,6.029,-0.011,-0.04,0.0,108.0,108.0,103.0,13.4,1505.3,324.2,-0.7,1.8,2470.616,13.31,0.041,195.4
2021-01-12T09:13:03,42.805,6.029,-0.003,-0.037,-0.003,106.0,108.0,105.0,13.3,1505.3,324.9,-0.7,1.9,2470.608,13.32,0.037,184.6
2021-01-12T09:16:03,42.805,6.029,0.003,-0.046,0.012,107.0,108.0,104.0,13.4,1505.3,324.2,-0.7,1.8,2470.615,13.32,0.046,176.3
2021-01-12T09:19:03,42.805,6.029,-0.023,-0.015,-0.048,106.0,106.0,104.0,13.4,1505.3,323.8,-0.7,1.9,2470.616,13.32,0.027,236.9
2021-01-12T09:22:03,42.805,6.029,-0.007,-0.04,-0.025,106.0,109.0,103.0,13.4,1505.3,326.4,-0.7,1.9,2470.65,13.32,0.04,189.9
2021-01-12T09:25:03,42.805,6.029,-0.003,-0.024,0.029,108.0,107.0,104.0,13.3,1505.3,327.3,-0.7,1.8,2470.607,13.32,0.024,187.1
2021-01-12T09:28:03,42.805,6.029,0.015,-0.028,0.019,107.0,108.0,103.0,13.4,1505.3,327.6,-0.7,1.8,2470.578,13.32,0.031,151.8
2021-01-12T09:31:03,42.805,6.029,-0.006,-0.024,0.012,107.0,108.0,103.0,13.4,1505.3,326.0,-0.7,1.9,2470.582,13.32,0.024,194.0
2021-01-12T09:34:03,42.805,6.029,0.023,-0.024,0.015,107.0,107.0,104.0,13.3,1505.3,325.8,-0.7,1.8,2470.586,13.32,0.033,136.2
2021-01-12T09:37:03,42.805,6.029,0.0,-0.021,-0.006,107.0,107.0,104.0,13.4,1505.3,324.9,-0.7,1.8,2470.554,13.32,0.021,180.0
2021-01-12T09:40:03,42.805,6.029,0.016,-0.018,-0.002,108.0,108.0,103.0,13.4,1505.3,323.6,-0.7,1.8,2470.602,13.32,0.024,138.4
2021-01-12T09:43:03,42.805,6.029,-0.035,-0.032,-0.044,107.0,108.0,104.0,13.4,1505.3,326.2,-0.7,1.8,2470.593,13.32,0.047,227.6
2021-01-12T09:46:03,42.805,6.029,-0.003,-0.021,-0.044,107.0,108.0,103.0,13.4,1505.3,326.3,-0.7,1.8,2470.58,13.32,0.021,188.1
2021-01-12T09:49:03,42.805,6.029,0.003,-0.036,-0.009,108.0,109.0,104.0,13.3,1505.3,325.4,-0.7,1.8,2470.547,13.32,0.036,175.2
2021-01-12T09:52:03,42.805,6.029,0.001,-0.014,0.02,106.0,107.0,104.0,13.4,1505.3,324.5,-0.7,1.8,2470.562,13.32,0.014,175.9
2021-01-12T09:55:03,42.805,6.029,-0.039,-0.015,-0.03,107.0,110.0,103.0,13.4,1505.3,326.4,-0.7,1.8,2470.569,13.33,0.041,249.0
2021-01-12T09:58:03,42.805,6.029,-0.012,-0.035,0.003,108.0,109.0,104.0,13.3,1505.3,323.9,-0.7,1.8,2470.552,13.33,0.037,198.9
2021-01-12T10:04:03,42.805,6.029,0.018,-0.024,0.004,106.0,108.0,103.0,13.4,1505.3,325.7,-0.8,1.9,2470.599,13.31,0.03,143.1